GW5927 Weather Reports


time (UTC)temp
F
wind
direction
speed
knots
gust
knots
rain 1hr
in
rain 24hr
in
rain mn
in
humidity
%
barometer
mb
20260507095428 51 170 0.0 1.7 0.00 0.00 0.00 89 1021.0
20260507094926 51 244 0.0 0.9 0.00 0.00 0.00 89 1021.0
20260507094429 51 333 0.0 0.9 0.00 0.00 0.00 89 1021.0
20260507093926 51 9 0.0 0.9 0.00 0.00 0.00 89 1021.0
20260507093426 51 15 0.0 0.9 0.00 0.00 0.00 89 1021.0
20260507092928 51 324 0.0 0.9 0.00 0.00 0.00 89 1021.0
20260507092426 51 50 0.0 0.9 0.00 0.00 0.00 88 1021.0
20260507091927 51 251 0.0 0.9 0.00 0.00 0.00 88 1021.0
20260507091427 51 161 0.9 1.7 0.00 0.00 0.00 88 1021.0
20260507090926 51 182 1.7 2.6 0.00 0.00 0.00 89 1021.0
20260507090431 51 177 0.9 1.7 0.00 0.00 0.00 88 1021.0
20260507085928 51 194 0.9 1.7 0.00 0.00 0.00 89 1021.0
20260507085426 51 187 0.9 2.6 0.00 0.00 0.00 89 1021.0
20260507084927 51 220 0.9 1.7 0.00 0.00 0.00 89 1021.0
20260507084426 51 350 0.0 0.9 0.00 0.00 0.00 89 1021.0
20260507083926 51 213 0.9 1.7 0.00 0.00 0.00 89 1021.0
20260507083427 51 161 1.7 2.6 0.00 0.00 0.00 89 1021.0
20260507082927 51 166 1.7 1.7 0.00 0.00 0.00 89 1021.0
20260507082426 51 209 0.9 1.7 0.00 0.00 0.00 89 1021.0
20260507081926 51 225 0.0 0.9 0.00 0.00 0.00 89 1021.0
20260507081426 51 177 1.7 2.6 0.00 0.00 0.00 89 1021.0
20260507080926 51 196 1.7 3.5 0.00 0.00 0.00 89 1021.0
20260507080427 51 197 1.7 3.5 0.00 0.00 0.00 89 1021.0
20260507075927 51 195 0.9 1.7 0.00 0.00 0.00 89 1021.0
20260507075427 51 219 0.9 1.7 0.00 0.00 0.00 89 1021.0
20260507074928 51 193 0.9 1.7 0.00 0.00 0.00 89 1021.0
20260507074426 51 166 0.0 0.9 0.00 0.00 0.00 89 1021.0
20260507073927 51 194 0.9 1.7 0.00 0.00 0.00 89 1021.0
20260507073431 51 293 0.9 0.9 0.00 0.00 0.00 90 1021.0
20260507072926 51 348 0.0 0.9 0.00 0.00 0.00 90 1021.0
20260507072430 51 0 0.0 0.0 0.00 0.00 0.00 90 1021.0
20260507071929 51 61 0.0 0.9 0.00 0.00 0.00 90 1021.0
20260507071426 51 305 0.9 2.6 0.00 0.00 0.00 90 1021.0
20260507070926 51 169 1.7 2.6 0.00 0.00 0.00 90 1021.0
20260507070426 52 196 1.7 3.5 0.00 0.00 0.00 90 1021.0
20260507065926 52 173 2.6 3.5 0.00 0.00 0.00 90 1021.0
20260507065429 52 188 1.7 2.6 0.00 0.00 0.00 90 1021.0
20260507064931 52 184 1.7 3.5 0.00 0.00 0.00 90 1021.0
20260507064428 52 170 1.7 3.5 0.00 0.00 0.00 90 1021.0
20260507063930 52 202 0.0 1.7 0.00 0.00 0.00 90 1021.0
20260507063429 52 235 0.9 2.6 0.00 0.00 0.00 90 1021.0
20260507062926 52 206 0.0 0.9 0.00 0.00 0.00 90 1021.0
20260507062426 52 213 0.9 1.7 0.00 0.00 0.00 90 1021.0
20260507061927 52 185 1.7 2.6 0.00 0.00 0.00 90 1021.0
20260507061428 52 190 1.7 2.6 0.00 0.00 0.00 90 1021.0
20260507060927 52 164 1.7 2.6 0.00 0.00 0.00 90 1021.0
20260507060427 52 183 0.9 1.7 0.00 0.00 0.00 90 1021.0
20260507055926 52 201 0.9 1.7 0.00 0.00 0.00 90 1021.0
20260507055427 52 225 0.9 1.7 0.00 0.00 0.00 90 1021.0
20260507054927 52 178 2.6 3.5 0.00 0.00 0.00 90 1021.0
20260507054426 52 150 2.6 4.3 0.00 0.00 0.00 90 1021.0
20260507053927 53 234 0.9 1.7 0.00 0.00 0.00 90 1021.0
20260507053429 53 225 0.0 0.9 0.00 0.00 0.00 90 1021.0
20260507052926 53 250 0.9 2.6 0.00 0.00 0.00 90 1021.0
20260507052428 53 236 1.7 2.6 0.00 0.00 0.00 90 1021.0
20260507051926 53 204 0.9 1.7 0.00 0.00 0.00 90 1021.0
20260507051426 53 220 0.9 1.7 0.00 0.00 0.00 90 1021.0
20260507050926 53 198 0.9 1.7 0.00 0.00 0.00 90 1021.0
20260507050427 53 15 0.0 0.9 0.00 0.00 0.00 90 1021.0
20260507045926 53 174 0.9 1.7 0.00 0.00 0.00 89 1021.0
20260507045428 53 335 0.0 0.9 0.00 0.00 0.00 89 1021.0
20260507044926 53 89 0.0 0.9 0.00 0.00 0.00 89 1021.0
20260507044426 53 186 0.9 1.7 0.00 0.00 0.00 89 1021.0
20260507043927 53 293 0.0 0.9 0.00 0.00 0.00 88 1021.0
20260507042942 53 162 0.9 1.7 0.00 0.00 0.00 88 1021.0
20260507042426 53 245 0.9 1.7 0.00 0.00 0.00 87 1021.0
20260507041927 53 179 0.9 1.7 0.00 0.00 0.00 87 1021.0
20260507041426 53 192 1.7 3.5 0.00 0.00 0.00 87 1021.0
20260507040927 54 186 1.7 3.5 0.00 0.00 0.00 86 1021.0
20260507040426 54 212 1.7 3.5 0.00 0.00 0.00 86 1021.0
20260507035927 54 181 1.7 2.6 0.00 0.00 0.00 86 1021.0
20260507035427 54 180 1.7 3.5 0.00 0.00 0.00 85 1020.0
20260507034926 54 195 0.9 1.7 0.00 0.00 0.00 85 1020.0
20260507034427 54 206 0.9 1.7 0.00 0.00 0.00 85 1020.0
20260507033926 54 198 1.7 5.2 0.00 0.00 0.00 84 1020.0
20260507033427 54 201 0.9 1.7 0.00 0.00 0.00 84 1020.0
20260507032927 55 200 3.5 4.3 0.00 0.00 0.00 83 1020.0
20260507032428 55 185 1.7 3.5 0.00 0.00 0.00 83 1020.0
20260507031926 55 207 0.0 1.7 0.00 0.00 0.00 83 1020.0
20260507031428 55 239 0.9 1.7 0.00 0.00 0.00 82 1020.0
20260507030928 55 183 3.5 6.1 0.00 0.00 0.00 82 1020.0
20260507030427 55 204 1.7 2.6 0.00 0.00 0.00 81 1020.0
20260507025928 55 187 2.6 3.5 0.00 0.00 0.00 81 1020.0
20260507025426 55 212 1.7 1.7 0.00 0.00 0.00 81 1020.0
20260507024927 56 196 1.7 3.5 0.00 0.00 0.00 80 1020.0
20260507024428 56 204 1.7 3.5 0.00 0.00 0.00 80 1020.0
20260507023929 56 193 1.7 3.5 0.00 0.00 0.00 80 1020.0
20260507023427 56 210 1.7 1.7 0.00 0.00 0.00 79 1020.0
20260507022930 56 211 1.7 5.2 0.00 0.00 0.00 79 1020.0
20260507022426 56 211 2.6 3.5 0.00 0.00 0.00 78 1020.0
20260507021928 56 204 1.7 4.3 0.00 0.00 0.00 78 1020.0
20260507021433 56 193 1.7 3.5 0.00 0.00 0.00 78 1020.0
20260507020928 57 207 0.9 1.7 0.00 0.00 0.00 77 1020.0
20260507020429 57 202 1.7 3.5 0.00 0.00 0.00 77 1020.0
20260507015926 57 212 1.7 2.6 0.00 0.00 0.00 77 1020.0
20260507015428 57 190 1.7 2.6 0.00 0.00 0.00 76 1020.0
20260507014927 57 206 2.6 3.5 0.00 0.00 0.00 76 1020.0
20260507014427 57 226 0.9 1.7 0.00 0.00 0.00 76 1020.0
20260507013927 57 166 1.7 2.6 0.00 0.00 0.00 76 1020.0
20260507013428 57 161 3.5 7.0 0.00 0.00 0.00 75 1020.0
20260507012927 57 184 2.6 3.5 0.00 0.00 0.00 76 1020.0
20260507012431 57 221 0.9 0.9 0.00 0.00 0.00 75 1020.0
20260507011928 58 185 1.7 3.5 0.00 0.00 0.00 75 1020.0
20260507011426 58 174 2.6 4.3 0.00 0.00 0.00 75 1020.0
20260507010928 58 172 4.3 7.0 0.00 0.00 0.00 75 1020.0
20260507010428 58 164 1.7 4.3 0.00 0.00 0.00 75 1020.0
20260507005929 58 279 0.9 1.7 0.00 0.00 0.00 75 1020.0
20260507005428 58 185 3.5 7.0 0.00 0.00 0.00 75 1020.0
20260507004927 58 188 2.6 4.3 0.00 0.00 0.00 75 1020.0
20260507004426 58 161 4.3 5.2 0.00 0.00 0.00 75 1020.0
20260507003927 58 211 3.5 5.2 0.00 0.00 0.00 74 1020.0
20260507003426 58 170 3.5 7.0 0.00 0.00 0.00 75 1020.0
20260507002928 58 170 5.2 7.0 0.00 0.00 0.00 74 1020.0
20260507002428 58 164 5.2 7.0 0.00 0.00 0.00 74 1020.0
20260507001927 58 174 1.7 4.3 0.00 0.00 0.00 75 1020.0
20260507001427 58 186 3.5 5.2 0.00 0.00 0.00 74 1020.0
20260507000926 58 185 4.3 5.2 0.00 0.00 0.00 75 1020.0
20260507000427 58 187 1.7 3.5 0.00 0.00 0.00 76 1020.0
20260506235927 58 175 5.2 7.0 0.00 0.00 0.00 75 1020.0
20260506235426 58 182 4.3 6.1 0.00 0.00 0.00 75 1020.0
20260506234927 58 246 0.0 0.9 0.00 0.00 0.00 76 1020.0
20260506234426 58 189 1.7 2.6 0.00 0.00 0.00 76 1020.0
20260506233453 58 176 3.5 6.1 0.00 0.00 0.00 75 1020.0
20260506232926 58 198 3.5 7.0 0.00 0.00 0.00 74 1020.0
20260506232426 58 183 4.3 7.8 0.00 0.00 0.00 74 1020.0
20260506231927 58 185 3.5 6.1 0.00 0.00 0.00 75 1020.0
20260506231428 58 273 2.6 4.3 0.00 0.00 0.00 74 1020.0
20260506230927 58 173 4.3 7.8 0.00 0.00 0.00 74 1020.0
20260506230426 58 183 5.2 9.6 0.00 0.00 0.00 73 1020.0
20260506225452 58 214 2.6 3.5 0.00 0.00 0.00 74 1020.0
20260506224928 58 242 2.6 6.1 0.00 0.00 0.00 75 1020.0
20260506224426 58 213 0.9 1.7 0.00 0.00 0.00 77 1020.0
20260506223929 58 212 3.5 7.8 0.00 0.00 0.00 74 1020.0
20260506223428 58 178 2.6 6.1 0.00 0.00 0.00 75 1020.0
20260506222927 57 182 1.7 3.5 0.00 0.00 0.00 76 1020.0
20260506222426 57 176 4.3 6.1 0.00 0.00 0.00 75 1020.0
20260506221926 57 205 2.6 3.5 0.00 0.00 0.00 75 1020.0
20260506221428 57 177 2.6 4.3 0.00 0.00 0.00 76 1020.0
20260506220928 57 212 0.9 1.7 0.00 0.00 0.00 76 1021.0
20260506220428 57 197 1.7 3.5 0.00 0.00 0.00 76 1021.0
20260506215928 56 203 1.7 2.6 0.00 0.00 0.00 77 1021.0
20260506215427 57 192 4.3 7.0 0.00 0.00 0.00 75 1020.0
20260506214928 57 262 0.9 2.6 0.00 0.00 0.00 77 1020.0
20260506214426 56 194 1.7 3.5 0.00 0.00 0.00 76 1021.0
20260506213929 56 204 2.6 4.3 0.00 0.00 0.00 76 1021.0
20260506213426 56 200 3.5 7.0 0.00 0.00 0.00 76 1021.0
20260506212927 56 235 1.7 4.3 0.00 0.00 0.00 76 1021.0
20260506212428 56 192 1.7 5.2 0.00 0.00 0.00 76 1021.0
20260506211926 56 218 2.6 3.5 0.00 0.00 0.00 76 1021.0
20260506211427 56 183 5.2 7.0 0.00 0.00 0.00 75 1020.0
20260506210927 56 171 4.3 5.2 0.00 0.00 0.00 75 1020.0
20260506210429 56 214 1.7 4.3 0.00 0.00 0.00 75 1020.0
20260506205927 56 197 3.5 7.0 0.00 0.00 0.00 75 1020.0
20260506205426 56 191 3.5 7.0 0.00 0.00 0.00 75 1020.0
20260506204927 56 196 6.1 7.8 0.00 0.00 0.00 74 1020.0
20260506204426 56 217 2.6 4.3 0.00 0.00 0.00 74 1020.0
20260506203928 56 200 0.9 1.7 0.00 0.00 0.00 75 1021.0
20260506203426 56 271 1.7 6.1 0.00 0.00 0.00 75 1020.0
20260506202929 56 212 1.7 3.5 0.00 0.00 0.00 74 1020.0
20260506202426 57 291 0.0 1.7 0.00 0.00 0.00 74 1020.0
20260506201930 57 210 3.5 5.2 0.00 0.00 0.00 73 1020.0
20260506201430 57 194 3.5 5.2 0.00 0.00 0.00 74 1020.0
20260506200930 57 192 4.3 7.0 0.00 0.00 0.00 74 1021.0
20260506200426 56 207 4.3 5.2 0.00 0.00 0.00 74 1021.0
20260506195926 56 199 3.5 5.2 0.00 0.00 0.00 74 1020.0
20260506195427 56 203 3.5 5.2 0.00 0.00 0.00 74 1020.0
20260506194928 56 204 2.6 3.5 0.00 0.00 0.00 75 1020.0
20260506194426 56 196 5.2 7.8 0.00 0.00 0.00 74 1020.0
20260506193928 56 217 3.5 5.2 0.00 0.00 0.00 75 1020.0
20260506193429 56 226 1.7 4.3 0.00 0.00 0.00 76 1020.0
20260506192928 55 186 4.3 7.0 0.00 0.00 0.00 76 1020.0
20260506192429 55 207 2.6 4.3 0.00 0.00 0.00 76 1020.0
20260506191928 55 213 3.5 6.1 0.00 0.00 0.00 76 1020.0
20260506191430 55 175 3.5 6.1 0.00 0.00 0.00 76 1020.0
20260506190927 56 201 4.3 7.0 0.00 0.00 0.00 76 1020.0
20260506190434 56 241 1.7 5.2 0.00 0.00 0.00 76 1020.0
20260506185927 56 205 3.5 4.3 0.00 0.00 0.00 75 1020.0
20260506185426 56 210 3.5 7.0 0.00 0.00 0.00 75 1020.0
20260506184930 57 187 3.5 6.1 0.00 0.00 0.00 73 1020.0
20260506184429 57 182 2.6 6.1 0.00 0.00 0.00 75 1021.0
20260506183930 56 187 1.7 4.3 0.00 0.00 0.00 75 1021.0
20260506183428 56 268 2.6 4.3 0.00 0.00 0.00 76 1020.0
20260506182928 56 205 3.5 6.1 0.00 0.00 0.00 75 1020.0
20260506182428 56 200 5.2 7.0 0.00 0.00 0.00 75 1020.0
20260506181927 56 243 3.5 6.1 0.00 0.00 0.00 75 1020.0
20260506181427 56 212 2.6 7.0 0.00 0.00 0.00 75 1020.0
20260506180926 56 194 3.5 7.8 0.00 0.00 0.00 75 1020.0
20260506180427 56 246 1.7 3.5 0.00 0.00 0.00 77 1020.0
20260506175926 56 241 1.7 3.5 0.00 0.00 0.00 77 1020.0
20260506175428 56 205 2.6 4.3 0.00 0.00 0.00 76 1020.0
20260506174929 55 249 1.7 5.2 0.00 0.00 0.00 78 1020.0
20260506174427 55 202 5.2 7.0 0.00 0.00 0.00 78 1020.0
20260506173929 55 239 1.7 4.3 0.00 0.00 0.00 80 1020.0
20260506173428 54 204 4.3 6.1 0.00 0.00 0.00 80 1020.0
20260506172927 54 202 3.5 6.1 0.00 0.00 0.00 81 1020.0
20260506172428 54 241 3.5 6.1 0.00 0.00 0.00 81 1020.0
20260506171928 54 197 0.9 2.6 0.00 0.00 0.00 82 1020.0
20260506171430 54 266 1.7 2.6 0.00 0.00 0.00 81 1020.0
20260506170926 54 185 3.5 6.1 0.00 0.00 0.00 82 1020.0
20260506170429 54 194 3.5 5.2 0.00 0.00 0.00 84 1020.0
20260506165929 53 211 3.5 5.2 0.00 0.00 0.00 84 1020.0
20260506165429 53 212 1.7 3.5 0.00 0.00 0.00 85 1020.0
20260506164927 53 215 1.7 3.5 0.00 0.00 0.00 87 1020.0
20260506164430 53 211 0.9 1.7 0.00 0.00 0.00 88 1020.0
20260506163931 53 206 2.6 4.3 0.00 0.00 0.00 87 1020.0
20260506163427 54 190 2.6 5.2 0.00 0.00 0.00 87 1020.0
20260506162928 54 250 0.9 2.6 0.00 0.00 0.00 87 1020.0
20260506162427 53 211 3.5 5.2 0.00 0.00 0.00 87 1020.0
20260506161928 53 179 4.3 7.8 0.00 0.00 0.00 87 1020.0
20260506161431 53 201 2.6 3.5 0.00 0.00 0.00 87 1019.0
20260506160927 53 210 2.6 5.2 0.00 0.00 0.00 88 1020.0
20260506160428 53 226 1.7 3.5 0.00 0.00 0.00 88 1019.0
20260506155929 53 183 3.5 4.3 0.00 0.00 0.00 89 1019.0
20260506155431 53 223 2.6 4.3 0.00 0.00 0.00 89 1019.0
20260506154931 53 181 3.5 5.2 0.00 0.00 0.00 89 1019.0
20260506154428 53 211 4.3 6.1 0.00 0.00 0.00 90 1019.0
20260506153931 53 178 3.5 6.1 0.00 0.00 0.00 91 1019.0
20260506153428 52 169 2.6 5.2 0.00 0.00 0.00 91 1020.0
20260506152928 52 176 3.5 5.2 0.00 0.00 0.00 90 1019.0
20260506152427 52 185 2.6 5.2 0.00 0.00 0.00 90 1020.0
20260506151929 52 188 2.6 4.3 0.00 0.00 0.00 91 1020.0
20260506151429 52 183 1.7 3.5 0.00 0.00 0.00 91 1020.0
20260506150930 52 227 1.7 3.5 0.00 0.00 0.00 91 1020.0
20260506150430 52 191 1.7 3.5 0.00 0.00 0.00 91 1020.0
20260506145931 52 203 1.7 2.6 0.00 0.00 0.00 91 1020.0
20260506145429 52 186 0.9 1.7 0.00 0.00 0.00 92 1019.0
20260506144931 52 196 1.7 3.5 0.00 0.00 0.00 92 1019.0
20260506144431 52 189 1.7 5.2 0.00 0.00 0.00 92 1019.0
20260506143931 52 190 2.6 3.5 0.00 0.00 0.00 92 1019.0
20260506143432 52 157 1.7 2.6 0.00 0.00 0.00 92 1019.0
20260506142929 52 199 1.7 3.5 0.00 0.00 0.00 92 1019.0
20260506142430 52 191 3.5 4.3 0.00 0.00 0.00 92 1019.0
20260506141928 52 189 1.7 2.6 0.00 0.00 0.00 92 1019.0
20260506141426 52 259 0.0 1.7 0.00 0.00 0.00 92 1019.0
20260506140927 51 202 1.7 2.6 0.00 0.00 0.00 92 1019.0
20260506140428 51 253 0.9 1.7 0.00 0.00 0.00 92 1019.0
20260506135929 51 207 0.9 1.7 0.00 0.00 0.00 92 1019.0
20260506135427 51 167 2.6 3.5 0.00 0.00 0.00 92 1019.0
20260506134927 51 160 1.7 2.6 0.00 0.00 0.00 92 1019.0
20260506134430 51 197 0.9 2.6 0.00 0.00 0.00 92 1019.0
20260506133926 51 200 0.9 1.7 0.00 0.00 0.00 92 1019.0
20260506133428 51 183 0.9 1.7 0.00 0.00 0.00 92 1019.0
20260506132928 51 195 2.6 3.5 0.00 0.00 0.00 92 1019.0
20260506132005 51 210 0.9 2.6 0.00 0.00 0.00 92 1019.0
20260506131427 51 214 0.9 1.7 0.00 0.00 0.00 93 1019.0
20260506130927 51 169 2.6 4.3 0.00 0.00 0.00 93 1019.0
20260506130430 51 184 1.7 5.2 0.00 0.00 0.00 93 1019.0
20260506125928 51 168 0.9 3.5 0.00 0.00 0.00 93 1019.0
20260506125429 51 233 0.9 2.6 0.00 0.00 0.00 93 1019.0
20260506124928 51 175 1.7 2.6 0.00 0.00 0.00 93 1018.0
20260506124426 51 178 1.7 2.6 0.00 0.00 0.00 93 1019.0
20260506123926 51 187 1.7 1.7 0.00 0.00 0.00 93 1019.0
20260506123428 51 203 0.9 2.6 0.00 0.00 0.00 93 1018.0
20260506122928 51 170 0.9 1.7 0.00 0.00 0.00 93 1018.0
20260506122430 51 186 1.7 3.5 0.00 0.00 0.00 93 1018.0
20260506121931 51 200 0.9 1.7 0.00 0.00 0.00 92 1018.0
20260506121427 52 195 1.7 2.6 0.00 0.00 0.00 92 1018.0
20260506120929 52 178 3.5 6.1 0.00 0.00 0.00 91 1018.0
20260506120430 52 191 1.7 2.6 0.00 0.00 0.00 91 1018.0
20260506115929 52 197 1.7 3.5 0.00 0.00 0.00 91 1018.0
20260506115429 52 201 1.7 3.5 0.00 0.00 0.00 91 1018.0
20260506114928 52 193 2.6 3.5 0.00 0.00 0.00 90 1018.0
20260506114428 52 236 0.0 1.7 0.00 0.00 0.00 90 1018.0
20260506113927 52 198 1.7 2.6 0.00 0.00 0.00 90 1018.0
20260506113427 52 276 0.9 1.7 0.00 0.00 0.00 90 1018.0
20260506112929 52 0 0.0 0.0 0.00 0.00 0.00 90 1018.0
20260506112427 52 224 0.9 2.6 0.00 0.00 0.00 90 1018.0
20260506111930 52 182 1.7 2.6 0.00 0.00 0.00 90 1018.0
20260506111429 52 177 1.7 2.6 0.00 0.00 0.00 90 1018.0
20260506110928 52 206 0.9 1.7 0.00 0.00 0.00 90 1018.0
20260506110428 52 143 2.6 3.5 0.00 0.00 0.00 90 1018.0
20260506105928 52 168 1.7 2.6 0.00 0.00 0.00 90 1018.0
20260506105426 52 257 2.6 3.5 0.00 0.00 0.00 90 1018.0
20260506104928 52 144 1.7 2.6 0.00 0.00 0.00 90 1018.0
20260506104432 52 188 2.6 4.3 0.00 0.00 0.00 90 1018.0
20260506103928 52 212 0.0 0.9 0.00 0.00 0.00 90 1018.0
20260506103429 52 203 0.9 0.9 0.00 0.00 0.00 90 1018.0
20260506102928 52 191 1.7 3.5 0.00 0.00 0.00 90 1018.0
20260506102429 52 213 0.9 1.7 0.00 0.00 0.00 90 1018.0
20260506101928 52 169 0.0 0.9 0.00 0.00 0.00 90 1018.0
20260506101430 52 238 0.9 1.7 0.00 0.00 0.00 90 1018.0
20260506100927 52 210 2.6 4.3 0.00 0.00 0.00 91 1018.0
20260506100429 52 356 0.0 0.9 0.00 0.00 0.00 91 1018.0
20260506095926 52 232 0.0 0.9 0.00 0.00 0.00 91 1018.0